Time,TemperatureF,DewpointF,PressureIn,WindDirection,WindDirectionDegrees,WindSpeedMPH,WindSpeedGustMPH,Humidity,HourlyPrecipIn,Conditions,Clouds,dailyrainin,SoftwareType,DateUTC
2013-02-02 00:03:00,54.0,52.0,30.23,NNW,339,5.0,7.0,90,-99.99,,,-99.99,,2013-02-02 05:03:00,
2013-02-02 00:12:00,54.0,51.0,30.23,NNW,340,5.0,7.0,90,-99.99,,,-99.99,,2013-02-02 05:12:00,
2013-02-02 00:22:00,54.0,51.0,30.23,NNW,340,5.0,7.0,90,-99.99,,,-99.99,,2013-02-02 05:22:00,
2013-02-02 00:33:00,54.0,51.0,30.23,NNW,331,5.0,7.0,89,-99.99,,,-99.99,,2013-02-02 05:33:00,
2013-02-02 00:42:00,54.0,51.0,30.23,NNW,345,5.0,6.0,88,-99.99,,,-99.99,,2013-02-02 05:42:00,
2013-02-02 00:52:00,54.0,50.0,30.22,NW,325,5.0,7.0,88,-99.99,,,-99.99,,2013-02-02 05:52:00,
2013-02-02 01:02:00,54.0,50.0,30.22,NW,325,5.0,7.0,88,-99.99,,,-99.99,,2013-02-02 06:02:00,
2013-02-02 01:12:00,54.0,50.0,30.22,West,280,4.0,5.0,88,-99.99,,,-99.99,,2013-02-02 06:12:00,
2013-02-02 01:22:00,54.0,50.0,30.22,West,280,4.0,5.0,88,-99.99,,,-99.99,,2013-02-02 06:22:00,
2013-02-02 01:32:00,54.0,50.0,30.22,SW,222,5.0,6.0,88,-99.99,,,-99.99,,2013-02-02 06:32:00,
2013-02-02 01:42:00,54.0,50.0,30.22,SSW,210,5.0,6.0,87,-99.99,,,-99.99,,2013-02-02 06:42:00,
2013-02-02 01:52:00,54.0,50.0,30.22,WSW,245,5.0,6.0,88,-99.99,,,-99.99,,2013-02-02 06:52:00,
2013-02-02 02:02:00,54.0,50.0,30.22,WSW,245,5.0,6.0,88,-99.99,,,-99.99,,2013-02-02 07:02:00,
2013-02-02 02:12:00,54.0,50.0,30.21,SW,215,5.0,7.0,86,-99.99,,,-99.99,,2013-02-02 07:12:00,
2013-02-02 02:21:00,54.0,50.0,30.21,SW,215,5.0,7.0,86,-99.99,,,-99.99,,2013-02-02 07:21:00,
2013-02-02 02:32:00,53.0,49.0,30.21,East,95,4.0,6.0,85,-99.99,,,-99.99,,2013-02-02 07:32:00,
2013-02-02 02:42:00,53.0,49.0,30.20,ESE,105,5.0,6.0,85,-99.99,,,-99.99,,2013-02-02 07:42:00,
2013-02-02 02:52:00,53.0,49.0,30.20,East,90,5.0,6.0,84,-99.99,,,-99.99,,2013-02-02 07:52:00,
2013-02-02 03:01:00,53.0,49.0,30.20,East,90,5.0,6.0,84,-99.99,,,-99.99,,2013-02-02 08:01:00,
2013-02-02 03:11:00,53.0,48.0,30.20,SE,141,5.0,7.0,83,-99.99,,,-99.99,,2013-02-02 08:11:00,
2013-02-02 03:21:00,53.0,48.0,30.20,SE,141,5.0,7.0,83,-99.99,,,-99.99,,2013-02-02 08:21:00,
2013-02-02 03:32:00,53.0,48.0,30.20,SE,141,5.0,7.0,83,-99.99,,,-99.99,,2013-02-02 08:32:00,
2013-02-02 03:42:00,53.0,46.0,30.20,South,179,6.0,9.0,78,-99.99,,,-99.99,,2013-02-02 08:42:00,
2013-02-02 03:53:00,53.0,45.0,30.20,SSW,205,6.0,8.0,73,-99.99,,,-99.99,,2013-02-02 08:53:00,
2013-02-02 04:02:00,53.0,45.0,30.20,SSW,205,6.0,8.0,73,-99.99,,,-99.99,,2013-02-02 09:02:00,
2013-02-02 04:11:00,53.0,45.0,30.20,SSW,205,6.0,8.0,73,-99.99,,,-99.99,,2013-02-02 09:11:00,
2013-02-02 04:22:00,53.0,45.0,30.20,SSW,205,6.0,8.0,73,-99.99,,,-99.99,,2013-02-02 09:22:00,
2013-02-02 04:32:00,53.0,45.0,30.20,SSW,205,6.0,8.0,73,-99.99,,,-99.99,,2013-02-02 09:32:00,
2013-02-02 04:42:00,53.0,45.0,30.20,SSW,205,6.0,8.0,73,-99.99,,,-99.99,,2013-02-02 09:42:00,
2013-02-02 04:52:00,53.0,43.0,30.20,North,7999,0.0,8.0,66,-99.99,,,-99.99,,2013-02-02 09:52:00,
2013-02-02 05:02:00,53.0,43.0,30.20,North,7999,0.0,8.0,66,-99.99,,,-99.99,,2013-02-02 10:02:00,
2013-02-02 05:11:00,53.0,43.0,30.20,North,7999,0.0,8.0,66,-99.99,,,-99.99,,2013-02-02 10:11:00,
2013-02-02 05:21:00,53.0,43.0,30.20,North,7999,0.0,8.0,66,-99.99,,,-99.99,,2013-02-02 10:21:00,
2013-02-02 05:32:00,54.0,43.0,30.20,NW,306,4.0,12.0,65,-99.99,,,-99.99,,2013-02-02 10:32:00,
2013-02-02 05:42:00,54.0,43.0,30.20,NW,323,1.0,1.0,66,-99.99,,,-99.99,,2013-02-02 10:42:00,
2013-02-02 05:52:00,54.0,43.0,30.20,SSE,151,39.0,39.0,67,-99.99,,,-99.99,,2013-02-02 10:52:00,
2013-02-02 06:02:00,54.0,43.0,30.20,SSE,151,39.0,39.0,67,-99.99,,,-99.99,,2013-02-02 11:02:00,
2013-02-02 06:11:00,54.0,43.0,30.20,SSE,150,38.0,38.0,67,-99.99,,,-99.99,,2013-02-02 11:11:00,
2013-02-02 06:22:00,54.0,43.0,30.20,SSE,150,38.0,38.0,67,-99.99,,,-99.99,,2013-02-02 11:22:00,
2013-02-02 06:32:00,54.0,43.0,30.20,SSE,150,38.0,38.0,67,-99.99,,,-99.99,,2013-02-02 11:32:00,
2013-02-02 06:42:00,52.0,44.0,30.22,NNW,337,6.0,9.0,74,-99.99,,,-99.99,,2013-02-02 11:42:00,
2013-02-02 06:52:00,52.0,42.0,30.23,WNW,303,6.0,10.0,68,-99.99,,,-99.99,,2013-02-02 11:52:00,
2013-02-02 07:02:00,52.0,42.0,30.23,WNW,303,6.0,10.0,68,-99.99,,,-99.99,,2013-02-02 12:02:00,
2013-02-02 07:11:00,52.0,42.0,30.23,WNW,303,6.0,9.0,68,-99.99,,,-99.99,,2013-02-02 12:11:00,
2013-02-02 07:22:00,52.0,42.0,30.23,WNW,303,6.0,9.0,68,-99.99,,,-99.99,,2013-02-02 12:22:00,
2013-02-02 07:32:00,52.0,42.0,30.23,SSW,206,4.0,7.0,68,-99.99,,,-99.99,,2013-02-02 12:32:00,
2013-02-02 07:42:00,52.0,42.0,30.23,East,98,3.0,5.0,68,-99.99,,,-99.99,,2013-02-02 12:42:00,
2013-02-02 07:53:00,52.0,42.0,30.24,East,93,3.0,6.0,68,-99.99,,,-99.99,,2013-02-02 12:53:00,
2013-02-02 08:03:00,52.0,42.0,30.24,East,93,3.0,6.0,68,-99.99,,,-99.99,,2013-02-02 13:03:00,
2013-02-02 08:11:00,53.0,41.0,30.24,ENE,76,4.0,6.0,63,-99.99,,,-99.99,,2013-02-02 13:11:00,
2013-02-02 08:22:00,53.0,41.0,30.24,ENE,76,4.0,6.0,63,-99.99,,,-99.99,,2013-02-02 13:22:00,
2013-02-02 08:32:00,55.0,42.0,30.24,SE,136,5.0,8.0,62,-99.99,,,-99.99,,2013-02-02 13:32:00,
2013-02-02 08:42:00,56.0,42.0,30.24,SE,124,7.0,10.0,58,-99.99,,,-99.99,,2013-02-02 13:42:00,
2013-02-02 08:52:00,58.0,44.0,30.25,ESE,111,8.0,12.0,58,-99.99,,,-99.99,,2013-02-02 13:52:00,
2013-02-02 09:03:00,58.0,44.0,30.25,ESE,111,8.0,12.0,58,-99.99,,,-99.99,,2013-02-02 14:03:00,
2013-02-02 09:11:00,60.0,46.0,30.25,NE,37,8.0,11.0,59,-99.99,,,-99.99,,2013-02-02 14:11:00,
2013-02-02 09:22:00,60.0,46.0,30.25,NE,37,8.0,11.0,59,-99.99,,,-99.99,,2013-02-02 14:22:00,
2013-02-02 09:33:00,60.0,46.0,30.25,NE,37,8.0,11.0,59,-99.99,,,-99.99,,2013-02-02 14:33:00,
2013-02-02 09:42:00,63.0,48.0,30.25,NE,38,8.0,14.0,57,-99.99,,,-99.99,,2013-02-02 14:42:00,
2013-02-02 09:52:00,64.0,49.0,30.25,NNE,31,8.0,12.0,56,-99.99,,,-99.99,,2013-02-02 14:52:00,
2013-02-02 10:03:00,64.0,49.0,30.25,NNE,31,8.0,12.0,56,-99.99,,,-99.99,,2013-02-02 15:03:00,
2013-02-02 10:12:00,66.0,50.0,30.25,NE,35,8.0,10.0,55,-99.99,,,-99.99,,2013-02-02 15:12:00,
2013-02-02 10:22:00,66.0,50.0,30.25,NE,35,8.0,10.0,55,-99.99,,,-99.99,,2013-02-02 15:22:00,
2013-02-02 10:32:00,67.0,51.0,30.24,NE,45,6.0,11.0,55,-99.99,,,-99.99,,2013-02-02 15:32:00,
2013-02-02 10:42:00,68.0,51.0,30.24,NE,35,6.0,12.0,54,-99.99,,,-99.99,,2013-02-02 15:42:00,
2013-02-02 10:52:00,69.0,52.0,30.24,NE,55,5.0,9.0,53,-99.99,,,-99.99,,2013-02-02 15:52:00,
2013-02-02 11:03:00,69.0,52.0,30.24,NE,55,5.0,9.0,53,-99.99,,,-99.99,,2013-02-02 16:03:00,
2013-02-02 11:12:00,70.0,52.0,30.24,ENE,59,5.0,9.0,52,-99.99,,,-99.99,,2013-02-02 16:12:00,
2013-02-02 11:23:00,70.0,52.0,30.24,ENE,59,5.0,9.0,52,-99.99,,,-99.99,,2013-02-02 16:23:00,
2013-02-02 11:32:00,70.0,52.0,30.23,East,92,6.0,10.0,51,-99.99,,,-99.99,,2013-02-02 16:32:00,
2013-02-02 11:42:00,71.0,52.0,30.22,ESE,107,7.0,12.0,50,-99.99,,,-99.99,,2013-02-02 16:42:00,
2013-02-02 11:52:00,71.0,51.0,30.22,East,85,8.0,13.0,49,-99.99,,,-99.99,,2013-02-02 16:52:00,
2013-02-02 12:03:00,71.0,51.0,30.22,East,85,8.0,13.0,49,-99.99,,,-99.99,,2013-02-02 17:03:00,
2013-02-02 12:11:00,72.0,51.0,30.21,ESE,119,10.0,17.0,48,-99.99,,,-99.99,,2013-02-02 17:11:00,
2013-02-02 12:23:00,72.0,51.0,30.21,ESE,119,10.0,17.0,48,-99.99,,,-99.99,,2013-02-02 17:23:00,
2013-02-02 12:32:00,72.0,51.0,30.21,ESE,119,10.0,17.0,48,-99.99,,,-99.99,,2013-02-02 17:32:00,
2013-02-02 12:42:00,72.0,51.0,30.20,ESE,107,10.0,17.0,47,-99.99,,,-99.99,,2013-02-02 17:42:00,
2013-02-02 12:53:00,72.0,51.0,30.19,ESE,112,10.0,16.0,48,-99.99,,,-99.99,,2013-02-02 17:53:00,
2013-02-02 13:03:00,72.0,51.0,30.19,ESE,112,10.0,16.0,48,-99.99,,,-99.99,,2013-02-02 18:03:00,
2013-02-02 13:12:00,72.0,51.0,30.18,ESE,110,8.0,14.0,47,-99.99,,,-99.99,,2013-02-02 18:12:00,
2013-02-02 13:22:00,72.0,51.0,30.18,ESE,110,8.0,14.0,47,-99.99,,,-99.99,,2013-02-02 18:22:00,
2013-02-02 13:32:00,72.0,51.0,30.18,ESE,123,10.0,17.0,47,-99.99,,,-99.99,,2013-02-02 18:32:00,
2013-02-02 13:42:00,73.0,51.0,30.17,SE,125,6.0,12.0,45,-99.99,,,-99.99,,2013-02-02 18:42:00,
2013-02-02 13:52:00,73.0,51.0,30.16,ESE,121,7.0,13.0,46,-99.99,,,-99.99,,2013-02-02 18:52:00,
2013-02-02 14:02:00,73.0,51.0,30.16,ESE,121,7.0,13.0,46,-99.99,,,-99.99,,2013-02-02 19:02:00,
2013-02-02 14:12:00,73.0,51.0,30.16,SE,134,7.0,12.0,45,-99.99,,,-99.99,,2013-02-02 19:12:00,
2013-02-02 14:22:00,73.0,51.0,30.16,SE,134,7.0,12.0,45,-99.99,,,-99.99,,2013-02-02 19:22:00,
2013-02-02 14:32:00,73.0,51.0,30.15,East,89,8.0,13.0,46,-99.99,,,-99.99,,2013-02-02 19:32:00,
2013-02-02 14:42:00,72.0,51.0,30.15,ESE,113,8.0,13.0,46,-99.99,,,-99.99,,2013-02-02 19:42:00,
2013-02-02 14:52:00,72.0,51.0,30.15,ESE,102,8.0,15.0,46,-99.99,,,-99.99,,2013-02-02 19:52:00,
2013-02-02 15:02:00,72.0,51.0,30.15,ESE,102,8.0,15.0,46,-99.99,,,-99.99,,2013-02-02 20:02:00,
2013-02-02 15:12:00,72.0,50.0,30.14,ESE,109,7.0,14.0,45,-99.99,,,-99.99,,2013-02-02 20:12:00,
2013-02-02 15:22:00,72.0,50.0,30.14,ESE,109,7.0,14.0,45,-99.99,,,-99.99,,2013-02-02 20:22:00,
2013-02-02 15:32:00,72.0,50.0,30.14,ESE,109,7.0,14.0,45,-99.99,,,-99.99,,2013-02-02 20:32:00,
2013-02-02 15:42:00,73.0,51.0,30.14,ESE,117,6.0,11.0,45,-99.99,,,-99.99,,2013-02-02 20:42:00,
2013-02-02 15:52:00,73.0,51.0,30.14,East,87,8.0,16.0,46,-99.99,,,-99.99,,2013-02-02 20:52:00,
2013-02-02 16:02:00,73.0,51.0,30.14,East,87,8.0,16.0,46,-99.99,,,-99.99,,2013-02-02 21:02:00,
2013-02-02 16:11:00,72.0,50.0,30.13,ESE,111,5.0,9.0,45,-99.99,,,-99.99,,2013-02-02 21:11:00,
2013-02-02 16:22:00,72.0,50.0,30.13,ESE,111,5.0,9.0,45,-99.99,,,-99.99,,2013-02-02 21:22:00,
2013-02-02 16:32:00,72.0,50.0,30.13,ESE,111,5.0,9.0,45,-99.99,,,-99.99,,2013-02-02 21:32:00,
2013-02-02 16:42:00,72.0,51.0,30.13,ESE,113,7.0,11.0,48,-99.99,,,-99.99,,2013-02-02 21:42:00,
2013-02-02 16:52:00,71.0,51.0,30.13,ESE,111,6.0,11.0,48,-99.99,,,-99.99,,2013-02-02 21:52:00,
2013-02-02 17:03:00,71.0,51.0,30.13,ESE,111,6.0,11.0,48,-99.99,,,-99.99,,2013-02-02 22:03:00,
2013-02-02 17:12:00,71.0,50.0,30.13,SE,124,7.0,10.0,48,-99.99,,,-99.99,,2013-02-02 22:12:00,
2013-02-02 17:21:00,71.0,50.0,30.13,SE,124,7.0,10.0,48,-99.99,,,-99.99,,2013-02-02 22:21:00,
2013-02-02 17:32:00,70.0,51.0,30.13,ESE,114,6.0,9.0,49,-99.99,,,-99.99,,2013-02-02 22:32:00,
2013-02-02 17:42:00,70.0,51.0,30.12,ESE,106,6.0,10.0,50,-99.99,,,-99.99,,2013-02-02 22:42:00,
2013-02-02 17:52:00,69.0,52.0,30.12,East,100,7.0,10.0,53,-99.99,,,-99.99,,2013-02-02 22:52:00,
2013-02-02 18:02:00,69.0,52.0,30.12,East,100,7.0,10.0,53,-99.99,,,-99.99,,2013-02-02 23:02:00,
2013-02-02 18:11:00,68.0,53.0,30.12,ESE,104,5.0,10.0,56,-99.99,,,-99.99,,2013-02-02 23:11:00,
2013-02-02 18:22:00,68.0,53.0,30.12,ESE,104,5.0,10.0,56,-99.99,,,-99.99,,2013-02-02 23:22:00,
2013-02-02 18:32:00,68.0,53.0,30.12,East,100,5.0,7.0,58,-99.99,,,-99.99,,2013-02-02 23:32:00,
2013-02-02 18:42:00,67.0,53.0,30.12,East,97,4.0,7.0,61,-99.99,,,-99.99,,2013-02-02 23:42:00,
2013-02-02 18:52:00,66.0,54.0,30.12,East,96,4.0,6.0,66,-99.99,,,-99.99,,2013-02-02 23:52:00,
2013-02-02 19:02:00,66.0,54.0,30.12,East,96,4.0,6.0,66,-99.99,,,-99.99,,2013-02-03 00:02:00,
2013-02-02 19:11:00,65.0,55.0,30.12,East,92,4.0,5.0,69,-99.99,,,-99.99,,2013-02-03 00:11:00,
2013-02-02 19:22:00,65.0,55.0,30.12,East,92,4.0,5.0,69,-99.99,,,-99.99,,2013-02-03 00:22:00,
2013-02-02 19:32:00,64.0,55.0,30.13,East,87,4.0,5.0,72,-99.99,,,-99.99,,2013-02-03 00:32:00,
2013-02-02 19:42:00,63.0,55.0,30.13,ENE,78,4.0,4.0,75,-99.99,,,-99.99,,2013-02-03 00:42:00,
2013-02-02 19:52:00,62.0,56.0,30.13,ENE,77,3.0,4.0,79,-99.99,,,-99.99,,2013-02-03 00:52:00,
2013-02-02 20:02:00,62.0,56.0,30.13,ENE,77,3.0,4.0,79,-99.99,,,-99.99,,2013-02-03 01:02:00,
2013-02-02 20:11:00,61.0,56.0,30.14,ENE,76,2.0,3.0,82,-99.99,,,-99.99,,2013-02-03 01:11:00,
2013-02-02 20:21:00,61.0,56.0,30.14,ENE,76,2.0,3.0,82,-99.99,,,-99.99,,2013-02-03 01:21:00,
2013-02-02 20:32:00,61.0,57.0,30.14,ENE,72,3.0,4.0,87,-99.99,,,-99.99,,2013-02-03 01:32:00,
2013-02-02 20:42:00,60.0,57.0,30.14,ENE,76,3.0,41.0,88,-99.99,,,-99.99,,2013-02-03 01:42:00,
2013-02-02 20:52:00,60.0,56.0,30.14,SE,146,17.0,43.0,86,-99.99,,,-99.99,,2013-02-03 01:52:00,
2013-02-02 21:01:00,60.0,56.0,30.14,SE,146,17.0,43.0,86,-99.99,,,-99.99,,2013-02-03 02:01:00,
2013-02-02 21:11:00,60.0,56.0,30.14,ESE,104,3.0,10.0,87,-99.99,,,-99.99,,2013-02-03 02:11:00,
2013-02-02 21:21:00,60.0,56.0,30.14,ESE,104,3.0,10.0,87,-99.99,,,-99.99,,2013-02-03 02:21:00,
2013-02-02 21:32:00,60.0,55.0,30.14,ESE,106,2.0,9.0,84,-99.99,,,-99.99,,2013-02-03 02:32:00,
2013-02-02 21:42:00,60.0,55.0,30.14,SE,129,3.0,13.0,83,-99.99,,,-99.99,,2013-02-03 02:42:00,
2013-02-02 21:52:00,60.0,54.0,30.14,ESE,123,7.0,45.0,81,-99.99,,,-99.99,,2013-02-03 02:52:00,
2013-02-02 22:02:00,60.0,54.0,30.14,ESE,123,7.0,45.0,81,-99.99,,,-99.99,,2013-02-03 03:02:00,
2013-02-02 22:11:00,60.0,55.0,30.14,ESE,113,3.0,10.0,83,-99.99,,,-99.99,,2013-02-03 03:11:00,
2013-02-02 22:22:00,60.0,55.0,30.14,ESE,113,3.0,10.0,83,-99.99,,,-99.99,,2013-02-03 03:22:00,
2013-02-02 22:32:00,60.0,57.0,30.13,East,95,4.0,10.0,89,-99.99,,,-99.99,,2013-02-03 03:32:00,
2013-02-02 22:42:00,59.0,57.0,30.13,ENE,74,1.0,1.0,91,-99.99,,,-99.99,,2013-02-03 03:42:00,
2013-02-02 22:52:00,59.0,57.0,30.13,ENE,74,1.0,1.0,91,-99.99,,,-99.99,,2013-02-03 03:52:00,
2013-02-02 23:01:00,59.0,57.0,30.13,ENE,74,1.0,1.0,91,-99.99,,,-99.99,,2013-02-03 04:01:00,
2013-02-02 23:11:00,59.0,57.0,30.13,ENE,74,1.0,1.0,91,-99.99,,,-99.99,,2013-02-03 04:11:00,
2013-02-02 23:22:00,59.0,57.0,30.13,ENE,74,1.0,1.0,91,-99.99,,,-99.99,,2013-02-03 04:22:00,
2013-02-02 23:32:00,59.0,57.0,30.13,ENE,74,1.0,1.0,91,-99.99,,,-99.99,,2013-02-03 04:32:00,
2013-02-02 23:42:00,59.0,57.0,30.13,ENE,74,1.0,1.0,91,-99.99,,,-99.99,,2013-02-03 04:42:00,
2013-02-02 23:52:00,58.0,56.0,30.11,ESE,105,6.0,30.0,92,-99.99,,,-99.99,,2013-02-03 04:52:00,